Change the Weather History Date:

Friday, October 5, 2012

  Actual Average Record
Temperature  
Mean Temperature 32 °F -  
Max Temperature 33 °F 59 °F 91 °F (1963)
Min Temperature 30 °F 35 °F 21 °F (1991)
Degree Days  
Heating Degree Days 34    
Moisture  
Dew Point 29 °F    
Average Humidity 93    
Maximum Humidity 100    
Minimum Humidity 87    
Precipitation  
Precipitation 0.00 in - - ()
Sea Level Pressure  
Sea Level Pressure 30.11 in    
Wind  
Wind Speed 19 mph (WNW)    
Max Wind Speed 24 mph    
Max Gust Speed 36 mph    
Visibility 5 miles    
Events Snow    
Averages and records for this station are not official NWS values.
T = Trace of Precipitation, MM = Missing Value Source: NWS Daily Summary

Daily Weather History Graph

Daily Weather History Graph

Search for Another Location

Airport or City:

Trip Planner

Search our weather history database for the weather conditions in past years. The results will help you decide how hot, cold, wet, or windy it might be!

Date:

Astronomy

Oct. 05, 2012 Rise Set
Actual Time 7:28 AM CDT 6:53 PM CDT
Civil Twilight 6:57 AM CDT 7:24 PM CDT
Nautical Twilight 6:21 AM CDT 7:59 PM CDT
Astronomical Twilight 5:45 AM CDT 8:35 PM CDT
Moon 9:57 PM CDT (10/5) 12:57 PM CDT (10/5)
Length of Visible Light 12h 26m
Length of Day
11h 24m
Waning Gibbous, 74% of the Moon is Illuminated
Oct 5
Waning Gibbous
Oct 8
Last Quarter
Oct 15
New
Oct 21
First Quarter
Oct 29
Full

Hourly Weather History & Observations

Time (CDT) Temp. Windchill Dew Point Humidity Pressure Visibility Wind Dir Wind Speed Gust Speed Precip Events Conditions
12:15 AM 32.0 °F 20.1 °F 30.2 °F 93% 30.08 in 10.0 mi WNW 19.6 mph 31.1 mph N/A   Overcast
12:35 AM 32.0 °F 19.5 °F 30.2 °F 93% 30.08 in 10.0 mi WNW 21.9 mph 33.4 mph N/A Snow Light Snow
12:56 AM 30.2 °F 16.5 °F 28.4 °F 93% 30.08 in 10.0 mi WNW 24.2 mph 35.7 mph N/A   Overcast
1:15 AM 30.2 °F 18.5 °F 28.4 °F 93% 30.07 in 10.0 mi WNW 17.3 mph 31.1 mph N/A   Overcast
1:35 AM 30.2 °F 17.8 °F 28.4 °F 93% 30.07 in 10.0 mi WNW 19.6 mph 31.1 mph N/A   Overcast
1:56 AM 30.2 °F 17.1 °F 28.4 °F 93% 30.07 in 7.0 mi WNW 21.9 mph 32.2 mph N/A Snow Light Snow
2:15 AM 30.2 °F 17.1 °F 28.4 °F 93% 30.07 in 7.0 mi WNW 21.9 mph 29.9 mph N/A   Overcast
2:35 AM 30.2 °F 18.1 °F 28.4 °F 93% 30.07 in 10.0 mi WNW 18.4 mph 27.6 mph N/A   Overcast
2:55 AM 30.2 °F 17.4 °F 28.4 °F 93% 30.07 in 10.0 mi WNW 20.7 mph 28.8 mph N/A   Overcast
3:15 AM 30.2 °F 17.4 °F 28.4 °F 93% 30.07 in 5.0 mi WNW 20.7 mph 27.6 mph N/A Snow Light Snow
3:35 AM 30.2 °F 17.1 °F 28.4 °F 93% 30.07 in 5.0 mi WNW 21.9 mph 27.6 mph N/A Snow Light Snow
3:55 AM 30.2 °F 16.8 °F 28.4 °F 93% 30.06 in 5.0 mi West 23.0 mph 29.9 mph N/A   Overcast
4:15 AM 30.2 °F 17.8 °F 28.4 °F 93% 30.06 in 5.0 mi West 19.6 mph 28.8 mph N/A Snow Light Snow
4:35 AM 30.2 °F 17.4 °F 28.4 °F 93% 30.06 in 3.0 mi WNW 20.7 mph 28.8 mph N/A Snow Light Snow
4:55 AM 30.2 °F 17.4 °F 28.4 °F 93% 30.06 in 4.0 mi West 20.7 mph 27.6 mph N/A Snow Light Snow
5:15 AM 30.2 °F 17.1 °F 28.4 °F 93% 30.06 in 3.0 mi WNW 21.9 mph 28.8 mph N/A Snow Light Snow
5:35 AM 30.2 °F 17.8 °F 28.4 °F 93% 30.05 in 2.5 mi West 19.6 mph 25.3 mph N/A Snow Light Snow
5:55 AM 30.2 °F 17.1 °F 28.4 °F 93% 30.05 in 3.0 mi West 21.9 mph 26.5 mph N/A Snow Light Snow
6:15 AM 30.2 °F 18.1 °F 28.4 °F 93% 30.05 in 3.0 mi West 18.4 mph 26.5 mph N/A Snow Light Snow
6:36 AM 30.2 °F 17.4 °F 28.4 °F 93% 30.05 in 2.5 mi West 20.7 mph 26.5 mph N/A Snow Light Snow
6:55 AM 30.2 °F 16.8 °F 28.4 °F 93% 30.05 in 2.0 mi WNW 23.0 mph - N/A Snow Light Snow
7:15 AM 30.2 °F 18.1 °F 28.4 °F 93% 30.05 in 1.8 mi WNW 18.4 mph 25.3 mph N/A Snow Light Snow
7:36 AM 30.2 °F 17.8 °F 28.4 °F 93% 30.05 in 2.5 mi WNW 19.6 mph 26.5 mph N/A Snow Light Snow
7:55 AM 30.2 °F 17.4 °F 28.4 °F 93% 30.06 in 2.0 mi WNW 20.7 mph 25.3 mph N/A Snow Light Snow
8:15 AM 30.2 °F 18.1 °F 28.4 °F 93% 30.06 in 2.0 mi WNW 18.4 mph 29.9 mph N/A Snow Light Snow
8:36 AM 30.2 °F 18.1 °F 28.4 °F 93% 30.06 in 2.5 mi WNW 18.4 mph 25.3 mph N/A Snow Light Snow
8:55 AM 30.2 °F 17.8 °F 28.4 °F 93% 30.06 in 2.5 mi WNW 19.6 mph 27.6 mph N/A Snow Light Snow
9:15 AM 30.2 °F 17.8 °F 28.4 °F 93% 30.07 in 5.0 mi WNW 19.6 mph 26.5 mph N/A Snow Light Snow
9:36 AM 30.2 °F 18.9 °F 28.4 °F 93% 30.08 in 4.0 mi WNW 16.1 mph 23.0 mph N/A Snow Light Snow
9:55 AM 30.2 °F 18.5 °F 28.4 °F 93% 30.08 in 5.0 mi WNW 17.3 mph 26.5 mph N/A Snow Light Snow
10:15 AM 30.2 °F 17.8 °F 28.4 °F 93% 30.09 in 5.0 mi WNW 19.6 mph 25.3 mph N/A Snow Light Snow
10:35 AM 30.2 °F 17.8 °F 28.4 °F 93% 30.09 in 5.0 mi WNW 19.6 mph 28.8 mph N/A Snow Light Snow
10:55 AM 30.2 °F 18.5 °F 28.4 °F 93% 30.09 in 3.0 mi WNW 17.3 mph 25.3 mph N/A Snow Light Snow
11:15 AM 30.2 °F 17.8 °F 28.4 °F 93% 30.09 in 2.0 mi WNW 19.6 mph 28.8 mph N/A Snow Light Snow
11:35 AM 30.2 °F 17.8 °F 28.4 °F 93% 30.10 in 1.8 mi WNW 19.6 mph 25.3 mph N/A Snow Light Snow
12:15 PM 33.8 °F 21.6 °F 30.2 °F 87% 30.10 in 4.0 mi WNW 23.0 mph 32.2 mph N/A Snow Light Snow
12:35 PM 32.0 °F 19.8 °F 30.2 °F 93% 30.11 in 2.5 mi WNW 20.7 mph 31.1 mph N/A Snow Light Snow
12:55 PM 32.0 °F 20.1 °F 30.2 °F 93% 30.12 in 2.0 mi WNW 19.6 mph 26.5 mph N/A Snow Light Snow
1:35 PM 33.8 °F 22.2 °F 30.2 °F 87% 30.11 in 5.0 mi WNW 20.7 mph 29.9 mph N/A Snow Light Snow
1:55 PM 32.0 °F 20.1 °F 30.2 °F 93% 30.12 in 4.0 mi WNW 19.6 mph 32.2 mph N/A Snow Light Snow
2:15 PM 33.8 °F 22.5 °F 30.2 °F 87% 30.11 in 5.0 mi WNW 19.6 mph 31.1 mph N/A Snow Light Snow
2:35 PM 33.8 °F 22.5 °F 30.2 °F 87% 30.12 in 10.0 mi NW 19.6 mph 26.5 mph N/A   Overcast
2:55 PM 33.8 °F 22.2 °F 30.2 °F 87% 30.12 in 7.0 mi NW 20.7 mph 27.6 mph N/A   Overcast
3:15 PM 33.8 °F 22.8 °F 30.2 °F 87% 30.12 in 10.0 mi NW 18.4 mph 29.9 mph N/A Snow Light Snow
3:35 PM 33.8 °F 22.2 °F 30.2 °F 87% 30.13 in 2.0 mi WNW 20.7 mph 26.5 mph N/A Snow Light Snow
3:55 PM 33.8 °F 23.2 °F 30.2 °F 87% 30.13 in 2.5 mi WNW 17.3 mph 31.1 mph N/A Snow Light Snow
4:15 PM 32.0 °F 19.8 °F 30.2 °F 93% 30.13 in 3.0 mi WNW 20.7 mph 27.6 mph N/A Snow Light Snow
4:35 PM 32.0 °F 20.8 °F 30.2 °F 93% 30.14 in 2.5 mi WNW 17.3 mph 24.2 mph N/A Snow Light Snow
4:55 PM 32.0 °F 21.2 °F 30.2 °F 93% 30.14 in 5.0 mi NW 16.1 mph 24.2 mph N/A Snow Light Snow
5:15 PM 32.0 °F 22.1 °F 30.2 °F 93% 30.14 in 2.0 mi NW 13.8 mph 23.0 mph N/A Snow Light Snow
5:35 PM 30.2 °F 19.8 °F 30.2 °F 100% 30.15 in 1.8 mi NW 13.8 mph 20.7 mph N/A Snow Light Snow
5:55 PM 30.2 °F 20.2 °F 30.2 °F 100% 30.15 in 1.5 mi NW 12.7 mph 18.4 mph N/A Snow Light Snow
6:15 PM 30.2 °F 19.8 °F 30.2 °F 100% 30.16 in 1.2 mi NW 13.8 mph 18.4 mph N/A Snow Light Snow
6:35 PM 30.2 °F 19.8 °F 30.2 °F 100% 30.16 in 2.5 mi NW 13.8 mph 19.6 mph N/A Snow Light Snow
6:55 PM 30.2 °F 19.8 °F 30.2 °F 100% 30.17 in 5.0 mi NW 13.8 mph 17.3 mph N/A Snow Light Snow
7:16 PM 30.2 °F 19.8 °F 30.2 °F 100% 30.17 in 7.0 mi NW 13.8 mph 18.4 mph N/A Snow Light Snow
7:35 PM 30.2 °F 19.3 °F 30.2 °F 100% 30.18 in 4.0 mi NW 15.0 mph 19.6 mph N/A Snow Light Snow
7:55 PM 30.2 °F 19.3 °F 30.2 °F 100% 30.18 in 3.0 mi NW 15.0 mph - N/A Snow Light Snow
8:15 PM 30.2 °F 18.9 °F 30.2 °F 100% 30.19 in 4.0 mi NNW 16.1 mph 21.9 mph N/A Snow Light Snow
8:35 PM 30.2 °F 19.3 °F 30.2 °F 100% 30.19 in 7.0 mi NNW 15.0 mph - N/A Snow Light Snow
8:56 PM 30.2 °F 18.5 °F 28.4 °F 93% 30.20 in 4.0 mi NNW 17.3 mph - N/A Snow Light Snow
9:15 PM 30.2 °F 19.8 °F 28.4 °F 93% 30.20 in 7.0 mi NNW 13.8 mph 19.6 mph N/A Snow Light Snow
9:35 PM 30.2 °F 18.5 °F 28.4 °F 93% 30.21 in 7.0 mi NNW 17.3 mph 23.0 mph N/A Snow Light Snow
9:56 PM 30.2 °F 18.9 °F 28.4 °F 93% 30.21 in 7.0 mi NNW 16.1 mph - N/A Snow Light Snow
10:35 PM 30.2 °F 18.5 °F 28.4 °F 93% 30.22 in 10.0 mi NNW 17.3 mph 24.2 mph N/A   Overcast
10:56 PM 30.2 °F 18.9 °F 28.4 °F 93% 30.22 in 10.0 mi North 16.1 mph 25.3 mph N/A   Overcast
11:15 PM 30.2 °F 18.9 °F 28.4 °F 93% 30.22 in 10.0 mi NNW 16.1 mph 23.0 mph N/A   Overcast
11:35 PM 30.2 °F 19.3 °F 28.4 °F 93% 30.22 in 7.0 mi NNW 15.0 mph - N/A   Overcast
11:56 PM 30.2 °F 18.9 °F 28.4 °F 93% 30.22 in 10.0 mi North 16.1 mph 20.7 mph N/A   Overcast